| time (UTC) | temp C | wind direction | speed KPH | gust KPH | rain 1hr cm | rain 24hr cm | rain mn cm | humidity % | barometer mb |
| 20260904190635 | 17 | 270 | 6.4 | 0.0 | 0.00 | 1.85 | 0.00 | 76 | 1054.4 |
| 20260904190515 | 17 | 337 | 12.9 | 0.0 | 0.00 | 1.85 | 0.00 | 76 | 1054.4 |
| 20260904190411 | 17 | 292 | 12.9 | 0.0 | 0.00 | 1.85 | 0.00 | 76 | 1054.4 |
| 20260904190304 | 17 | 247 | 12.9 | 0.0 | 0.00 | 1.85 | 0.00 | 76 | 1054.4 |
| 20260904190151 | 17 | 292 | 6.4 | 0.0 | 0.00 | 1.85 | 0.00 | 76 | 1054.4 |
| 20260904190030 | 17 | 315 | 8.0 | 0.0 | 0.00 | 1.85 | 0.00 | 76 | 1054.3 |
| 20260904185917 | 17 | 292 | 32.2 | 0.0 | 0.00 | 1.85 | 0.00 | 76 | 1054.4 |
| 20260904185812 | 17 | 270 | 22.5 | 0.0 | 0.00 | 1.85 | 0.00 | 76 | 1054.3 |
| 20260904185700 | 17 | 337 | 0.0 | 0.0 | 0.00 | 1.85 | 0.00 | 76 | 1054.3 |
| 20260904185553 | 17 | 270 | 19.3 | 0.0 | 0.00 | 1.85 | 0.00 | 76 | 1054.4 |
| 20260904185440 | 17 | 337 | 4.8 | 0.0 | 0.00 | 1.85 | 0.00 | 76 | 1054.4 |
| 20260904185327 | 17 | 315 | 0.0 | 0.0 | 0.00 | 1.85 | 0.00 | 76 | 1054.3 |
| 20260904185222 | 17 | 315 | 4.8 | 0.0 | 0.00 | 1.85 | 0.00 | 76 | 1054.3 |
| 20260904185109 | 17 | 292 | 14.5 | 0.0 | 0.00 | 1.85 | 0.00 | 76 | 1054.3 |
| 20260904184958 | 17 | 270 | 17.7 | 0.0 | 0.00 | 1.85 | 0.00 | 76 | 1054.3 |
| 20260904184850 | 17 | 315 | 0.0 | 0.0 | 0.00 | 1.85 | 0.00 | 76 | 1054.3 |
| 20260904184722 | 17 | 315 | 11.3 | 0.0 | 0.00 | 1.85 | 0.00 | 76 | 1054.2 |
| 20260904184608 | 17 | 315 | 0.0 | 0.0 | 0.00 | 1.85 | 0.00 | 76 | 1054.2 |
| 20260904184455 | 17 | 270 | 30.6 | 0.0 | 0.00 | 1.85 | 0.00 | 76 | 1054.3 |
| 20260904184336 | 17 | 292 | 11.3 | 0.0 | 0.00 | 1.85 | 0.00 | 76 | 1054.3 |
| 20260904184221 | 17 | 292 | 9.7 | 0.0 | 0.00 | 1.85 | 0.00 | 75 | 1054.2 |
| 20260904184108 | 17 | 337 | 19.3 | 0.0 | 0.00 | 1.85 | 0.00 | 76 | 1054.2 |
| 20260904183939 | 17 | 292 | 12.9 | 0.0 | 0.00 | 1.85 | 0.00 | 76 | 1054.2 |
| 20260904183825 | 17 | 315 | 30.6 | 0.0 | 0.00 | 1.85 | 0.00 | 76 | 1054.2 |
| 20260904183704 | 17 | 292 | 8.0 | 0.0 | 0.00 | 1.85 | 0.00 | 76 | 1054.1 |
| 20260904183551 | 17 | 270 | 9.7 | 0.0 | 0.00 | 1.85 | 0.00 | 76 | 1054.1 |
| 20260904183438 | 17 | 270 | 19.3 | 0.0 | 0.00 | 1.85 | 0.00 | 76 | 1054.1 |
| 20260904183333 | 17 | 315 | 19.3 | 0.0 | 0.00 | 1.85 | 0.00 | 75 | 1054.2 |
| 20260904183220 | 17 | 292 | 6.4 | 0.0 | 0.00 | 1.85 | 0.00 | 75 | 1054.2 |
| 20260904183114 | 17 | 337 | 6.4 | 0.0 | 0.00 | 1.85 | 0.00 | 75 | 1054.2 |
| 20260904182953 | 17 | 292 | 25.7 | 0.0 | 0.00 | 1.85 | 0.00 | 76 | 1054.1 |
| 20260904182834 | 17 | 315 | 37.0 | 0.0 | 0.00 | 1.85 | 0.00 | 75 | 1054.1 |
| 20260904182719 | 17 | 315 | 8.0 | 0.0 | 0.00 | 1.85 | 0.00 | 75 | 1054.1 |
| 20260904182606 | 17 | 292 | 33.8 | 0.0 | 0.00 | 1.85 | 0.00 | 75 | 1054.0 |
| 20260904182453 | 17 | 292 | 19.3 | 0.0 | 0.00 | 1.85 | 0.00 | 75 | 1054.0 |
| 20260904182340 | 17 | 292 | 11.3 | 0.0 | 0.00 | 1.85 | 0.00 | 75 | 1054.1 |
| 20260904182234 | 17 | 292 | 22.5 | 0.0 | 0.00 | 1.85 | 0.00 | 75 | 1054.1 |
| 20260904182124 | 17 | 315 | 12.9 | 0.0 | 0.00 | 1.85 | 0.00 | 76 | 1054.0 |
| 20260904182018 | 17 | 292 | 32.2 | 0.0 | 0.00 | 1.85 | 0.00 | 76 | 1054.1 |
| 20260904181903 | 17 | 270 | 8.0 | 0.0 | 0.00 | 1.85 | 0.00 | 76 | 1054.0 |
| 20260904181749 | 17 | 0 | 0.0 | 0.0 | 0.00 | 1.85 | 0.00 | 76 | 1053.9 |
| 20260904181621 | 17 | 247 | 22.5 | 0.0 | 0.00 | 1.85 | 0.00 | 76 | 1054.0 |
| 20260904181508 | 17 | 292 | 17.7 | 0.0 | 0.00 | 1.85 | 0.00 | 76 | 1054.0 |
| 20260904181354 | 17 | 247 | 9.7 | 0.0 | 0.00 | 1.85 | 0.00 | 75 | 1054.0 |
| 20260904181236 | 17 | 337 | 19.3 | 0.0 | 0.00 | 1.85 | 0.00 | 75 | 1054.0 |
| 20260904181129 | 17 | 270 | 25.7 | 0.0 | 0.00 | 1.85 | 0.00 | 75 | 1054.0 |
| 20260904181024 | 17 | 0 | 14.5 | 0.0 | 0.00 | 1.85 | 0.00 | 75 | 1054.0 |
| 20260904180911 | 18 | 292 | 16.1 | 0.0 | 0.00 | 1.85 | 0.00 | 75 | 1053.9 |
| 20260904180805 | 18 | 0 | 24.1 | 0.0 | 0.00 | 1.85 | 0.00 | 76 | 1053.9 |
| 20260904180644 | 18 | 315 | 16.1 | 0.0 | 0.00 | 1.85 | 0.00 | 76 | 1053.9 |
| 20260904180531 | 18 | 270 | 9.7 | 0.0 | 0.00 | 1.85 | 0.00 | 76 | 1053.7 |
| 20260904180402 | 18 | 292 | 17.7 | 0.0 | 0.00 | 1.85 | 0.00 | 76 | 1053.8 |
| 20260904180249 | 18 | 247 | 6.4 | 0.0 | 0.00 | 1.85 | 0.00 | 76 | 1053.8 |
| 20260904180135 | 18 | 270 | 12.9 | 0.0 | 0.00 | 1.85 | 0.00 | 76 | 1053.8 |
| 20260904180024 | 18 | 315 | 0.0 | 0.0 | 0.00 | 1.85 | 0.00 | 76 | 1053.8 |
| 20260904175910 | 18 | 315 | 0.0 | 0.0 | 0.00 | 1.85 | 0.00 | 76 | 1053.8 |
| 20260904175807 | 18 | 315 | 25.7 | 0.0 | 0.00 | 1.85 | 0.00 | 76 | 1053.8 |
| 20260904175659 | 18 | 292 | 9.7 | 0.0 | 0.00 | 1.85 | 0.00 | 76 | 1053.7 |
| 20260904175546 | 18 | 270 | 6.4 | 0.0 | 0.00 | 1.85 | 0.00 | 75 | 1053.8 |
| 20260904175433 | 18 | 270 | 12.9 | 0.0 | 0.00 | 1.85 | 0.00 | 74 | 1053.7 |
| 20260904175328 | 18 | 292 | 8.0 | 0.0 | 0.00 | 1.85 | 0.00 | 74 | 1053.7 |
| 20260904175217 | 18 | 315 | 11.3 | 0.0 | 0.00 | 1.85 | 0.00 | 74 | 1053.7 |
| 20260904175110 | 18 | 315 | 25.7 | 0.0 | 0.00 | 1.85 | 0.00 | 75 | 1053.7 |
| 20260904175005 | 18 | 270 | 17.7 | 0.0 | 0.00 | 1.85 | 0.00 | 75 | 1053.8 |
| 20260904174853 | 18 | 247 | 12.9 | 0.0 | 0.00 | 1.85 | 0.00 | 74 | 1053.7 |
| 20260904174747 | 18 | 270 | 9.7 | 0.0 | 0.00 | 1.85 | 0.00 | 74 | 1053.5 |
| 20260904174633 | 18 | 292 | 11.3 | 0.0 | 0.00 | 1.85 | 0.00 | 73 | 1053.5 |
| 20260904174521 | 18 | 270 | 33.8 | 0.0 | 0.00 | 1.85 | 0.00 | 74 | 1053.5 |
| 20260904174416 | 18 | 315 | 0.0 | 0.0 | 0.00 | 1.85 | 0.00 | 74 | 1053.6 |
| 20260904174310 | 18 | 315 | 19.3 | 0.0 | 0.00 | 1.85 | 0.00 | 75 | 1053.5 |
| 20260904174206 | 18 | 337 | 9.7 | 0.0 | 0.00 | 1.85 | 0.00 | 75 | 1053.6 |
| 20260904174100 | 18 | 22 | 9.7 | 0.0 | 0.00 | 1.85 | 0.00 | 74 | 1053.5 |
| 20260904173933 | 18 | 292 | 20.9 | 0.0 | 0.00 | 1.85 | 0.00 | 75 | 1053.5 |
| 20260904173828 | 18 | 337 | 24.1 | 0.0 | 0.00 | 1.85 | 0.00 | 75 | 1053.5 |
| 20260904173721 | 18 | 315 | 11.3 | 0.0 | 0.00 | 1.85 | 0.00 | 75 | 1053.6 |
| 20260904173608 | 18 | 315 | 8.0 | 0.0 | 0.00 | 1.85 | 0.00 | 75 | 1053.6 |
| 20260904173455 | 18 | 0 | 20.9 | 0.0 | 0.00 | 1.85 | 0.00 | 75 | 1053.5 |
| 20260904173350 | 18 | 292 | 9.7 | 0.0 | 0.00 | 1.85 | 0.00 | 74 | 1053.5 |
| 20260904173244 | 18 | 292 | 22.5 | 0.0 | 0.00 | 1.85 | 0.00 | 74 | 1053.4 |
| 20260904173134 | 18 | 315 | 9.7 | 0.0 | 0.00 | 1.85 | 0.00 | 74 | 1053.5 |
| 20260904173026 | 18 | 292 | 16.1 | 0.0 | 0.00 | 1.85 | 0.00 | 74 | 1053.4 |
| 20260904172916 | 18 | 270 | 17.7 | 0.0 | 0.00 | 1.85 | 0.00 | 73 | 1053.4 |
| 20260904172808 | 18 | 292 | 20.9 | 0.0 | 0.00 | 1.85 | 0.00 | 74 | 1053.4 |
| 20260904172656 | 18 | 337 | 11.3 | 0.0 | 0.00 | 1.85 | 0.00 | 73 | 1053.4 |
| 20260904172550 | 18 | 292 | 29.0 | 0.0 | 0.00 | 1.85 | 0.00 | 74 | 1053.4 |
| 20260904172438 | 18 | 337 | 0.0 | 0.0 | 0.00 | 1.85 | 0.00 | 73 | 1053.3 |
| 20260904172330 | 18 | 315 | 17.7 | 0.0 | 0.00 | 1.85 | 0.00 | 72 | 1053.4 |
| 20260904172209 | 18 | 315 | 6.4 | 0.0 | 0.00 | 1.85 | 0.00 | 72 | 1053.3 |
| 20260904172056 | 18 | 292 | 4.8 | 0.0 | 0.00 | 1.85 | 0.00 | 72 | 1053.3 |
| 20260904171951 | 18 | 315 | 22.5 | 0.0 | 0.00 | 1.85 | 0.00 | 72 | 1053.3 |
| 20260904171846 | 18 | 270 | 0.0 | 0.0 | 0.00 | 1.85 | 0.00 | 72 | 1053.3 |
| 20260904171725 | 18 | 270 | 3.2 | 0.0 | 0.00 | 1.85 | 0.00 | 71 | 1053.3 |
| 20260904171620 | 18 | 270 | 19.3 | 0.0 | 0.00 | 1.85 | 0.00 | 71 | 1053.4 |
| 20260904171514 | 18 | 292 | 9.7 | 0.0 | 0.00 | 1.85 | 0.00 | 72 | 1053.4 |
| 20260904171402 | 18 | 270 | 11.3 | 0.0 | 0.00 | 1.85 | 0.00 | 72 | 1053.3 |
| 20260904171256 | 18 | 337 | 6.4 | 0.0 | 0.00 | 1.85 | 0.00 | 72 | 1053.3 |
| 20260904171143 | 18 | 337 | 17.7 | 0.0 | 0.00 | 1.85 | 0.00 | 72 | 1053.2 |
| 20260904171038 | 18 | 315 | 24.1 | 0.0 | 0.00 | 1.85 | 0.00 | 72 | 1053.3 |
| 20260904170923 | 18 | 22 | 0.0 | 0.0 | 0.00 | 1.85 | 0.00 | 71 | 1053.2 |
| 20260904170803 | 18 | 315 | 20.9 | 0.0 | 0.00 | 1.85 | 0.00 | 71 | 1053.1 |
| 20260904170649 | 18 | 292 | 9.7 | 0.0 | 0.00 | 1.85 | 0.00 | 73 | 1053.2 |
| 20260904170527 | 18 | 292 | 14.5 | 0.0 | 0.00 | 1.85 | 0.00 | 74 | 1053.3 |
| 20260904170417 | 18 | 292 | 9.7 | 0.0 | 0.00 | 1.85 | 0.00 | 74 | 1053.1 |
| 20260904170309 | 18 | 315 | 16.1 | 0.0 | 0.00 | 1.85 | 0.00 | 73 | 1053.1 |
| 20260904170156 | 18 | 292 | 0.0 | 0.0 | 0.00 | 1.85 | 0.00 | 73 | 1053.2 |
| 20260904170050 | 18 | 337 | 11.3 | 0.0 | 0.00 | 1.85 | 0.00 | 72 | 1053.1 |
| 20260904165945 | 18 | 337 | 9.7 | 0.0 | 0.00 | 1.85 | 0.00 | 71 | 1053.1 |
| 20260904165838 | 18 | 315 | 24.1 | 0.0 | 0.00 | 1.85 | 0.00 | 71 | 1053.1 |
| 20260904165718 | 18 | 292 | 8.0 | 0.0 | 0.00 | 1.85 | 0.00 | 71 | 1053.1 |
| 20260904165604 | 18 | 315 | 8.0 | 0.0 | 0.00 | 1.85 | 0.00 | 71 | 1053.0 |
| 20260904165451 | 18 | 270 | 9.7 | 0.0 | 0.00 | 1.85 | 0.00 | 72 | 1053.1 |
| 20260904165346 | 18 | 315 | 9.7 | 0.0 | 0.00 | 1.85 | 0.00 | 73 | 1053.0 |
| 20260904165235 | 18 | 0 | 9.7 | 0.0 | 0.00 | 1.85 | 0.00 | 73 | 1053.0 |
| 20260904165127 | 18 | 315 | 14.5 | 0.0 | 0.00 | 1.85 | 0.00 | 72 | 1053.0 |
| 20260904165007 | 18 | 315 | 11.3 | 0.0 | 0.00 | 1.85 | 0.00 | 72 | 1053.0 |
| 20260904164853 | 18 | 315 | 14.5 | 0.0 | 0.00 | 1.85 | 0.00 | 72 | 1053.0 |
| 20260904164733 | 18 | 292 | 33.8 | 0.0 | 0.00 | 1.85 | 0.00 | 72 | 1052.9 |
| 20260904164627 | 18 | 270 | 14.5 | 0.0 | 0.00 | 1.85 | 0.00 | 72 | 1052.9 |
| 20260904164516 | 18 | 337 | 30.6 | 0.0 | 0.00 | 1.85 | 0.00 | 72 | 1052.9 |
| 20260904164411 | 18 | 270 | 14.5 | 0.0 | 0.00 | 1.85 | 0.00 | 72 | 1052.9 |
| 20260904164304 | 18 | 0 | 0.0 | 0.0 | 0.00 | 1.85 | 0.00 | 72 | 1053.0 |
| 20260904164151 | 18 | 270 | 16.1 | 0.0 | 0.00 | 1.85 | 0.00 | 72 | 1053.0 |
| 20260904164047 | 18 | 292 | 9.7 | 0.0 | 0.00 | 1.85 | 0.00 | 72 | 1052.9 |
| 20260904163940 | 18 | 0 | 22.5 | 0.0 | 0.00 | 1.85 | 0.00 | 71 | 1052.9 |
| 20260904163828 | 18 | 292 | 8.0 | 0.0 | 0.00 | 1.85 | 0.00 | 71 | 1052.9 |
| 20260904163714 | 18 | 292 | 19.3 | 0.0 | 0.00 | 1.85 | 0.00 | 71 | 1052.9 |
| 20260904163602 | 18 | 315 | 33.8 | 0.0 | 0.00 | 1.85 | 0.00 | 72 | 1052.9 |
| 20260904163449 | 18 | 270 | 22.5 | 0.0 | 0.00 | 1.85 | 0.00 | 72 | 1053.0 |
| 20260904163327 | 18 | 315 | 24.1 | 0.0 | 0.00 | 1.85 | 0.00 | 71 | 1053.0 |
| 20260904163214 | 18 | 315 | 12.9 | 0.0 | 0.00 | 1.85 | 0.00 | 72 | 1052.9 |
| 20260904163101 | 18 | 315 | 17.7 | 0.0 | 0.00 | 1.85 | 0.00 | 71 | 1052.9 |
| 20260904162956 | 18 | 270 | 12.9 | 0.0 | 0.00 | 1.85 | 0.00 | 71 | 1052.8 |
| 20260904162837 | 18 | 315 | 6.4 | 0.0 | 0.00 | 1.85 | 0.00 | 71 | 1052.8 |
| 20260904162709 | 18 | 0 | 14.5 | 0.0 | 0.00 | 1.85 | 0.00 | 71 | 1052.8 |
| 20260904162556 | 18 | 315 | 3.2 | 0.0 | 0.00 | 1.85 | 0.00 | 71 | 1052.8 |
| 20260904162440 | 18 | 315 | 9.7 | 0.0 | 0.00 | 1.85 | 0.00 | 71 | 1052.7 |
| 20260904162301 | 18 | 180 | 9.7 | 0.0 | 0.00 | 1.85 | 0.00 | 71 | 1052.8 |
| 20260904162142 | 18 | 247 | 6.4 | 0.0 | 0.00 | 1.85 | 0.00 | 72 | 1052.8 |
| 20260904162027 | 18 | 270 | 11.3 | 0.0 | 0.00 | 1.85 | 0.00 | 72 | 1052.8 |
| 20260904161906 | 18 | 292 | 8.0 | 0.0 | 0.00 | 1.85 | 0.00 | 71 | 1052.8 |
| 20260904161801 | 18 | 292 | 12.9 | 0.0 | 0.00 | 1.85 | 0.00 | 71 | 1052.8 |
| 20260904161656 | 18 | 247 | 20.9 | 0.0 | 0.00 | 1.85 | 0.00 | 72 | 1052.8 |
| 20260904161535 | 18 | 247 | 29.0 | 0.0 | 0.00 | 1.85 | 0.00 | 72 | 1052.8 |
| 20260904161430 | 18 | 292 | 17.7 | 0.0 | 0.00 | 1.85 | 0.00 | 72 | 1052.9 |
| 20260904161319 | 18 | 337 | 16.1 | 0.0 | 0.00 | 1.85 | 0.00 | 71 | 1052.9 |
| 20260904161212 | 18 | 315 | 32.2 | 0.0 | 0.00 | 1.85 | 0.00 | 71 | 1052.7 |
| 20260904161106 | 18 | 270 | 25.7 | 0.0 | 0.00 | 1.85 | 0.00 | 72 | 1052.8 |
| 20260904160953 | 18 | 292 | 14.5 | 0.0 | 0.00 | 1.85 | 0.00 | 71 | 1052.9 |
| 20260904160849 | 18 | 315 | 4.8 | 0.0 | 0.00 | 1.85 | 0.00 | 71 | 1052.7 |
| 20260904160744 | 18 | 337 | 12.9 | 0.0 | 0.00 | 1.85 | 0.00 | 72 | 1052.7 |
| 20260904160631 | 18 | 315 | 9.7 | 0.0 | 0.00 | 1.85 | 0.00 | 72 | 1052.7 |
| 20260904160517 | 18 | 270 | 16.1 | 0.0 | 0.00 | 1.85 | 0.00 | 72 | 1052.8 |
| 20260904160412 | 18 | 292 | 11.3 | 0.0 | 0.00 | 1.85 | 0.00 | 72 | 1052.8 |
| 20260904160252 | 18 | 292 | 6.4 | 0.0 | 0.00 | 1.85 | 0.00 | 71 | 1052.7 |
| 20260904160146 | 18 | 270 | 12.9 | 0.0 | 0.00 | 1.85 | 0.00 | 71 | 1052.7 |
| 20260904160033 | 18 | 292 | 22.5 | 0.0 | 0.00 | 1.85 | 0.00 | 71 | 1052.8 |
| 20260904155922 | 18 | 292 | 11.3 | 0.0 | 0.00 | 1.85 | 0.00 | 72 | 1052.8 |
| 20260904155813 | 18 | 22 | 6.4 | 0.0 | 0.00 | 1.85 | 0.00 | 72 | 1052.7 |
| 20260904155703 | 18 | 292 | 22.5 | 0.0 | 0.00 | 1.85 | 0.00 | 72 | 1052.8 |
| 20260904155554 | 18 | 292 | 35.4 | 0.0 | 0.00 | 1.85 | 0.00 | 73 | 1052.7 |
| 20260904155438 | 18 | 315 | 16.1 | 0.0 | 0.00 | 1.85 | 0.00 | 73 | 1052.8 |
| 20260904155311 | 18 | 292 | 14.5 | 0.0 | 0.00 | 1.85 | 0.00 | 72 | 1052.8 |
| 20260904155203 | 18 | 292 | 14.5 | 0.0 | 0.00 | 1.85 | 0.00 | 72 | 1052.6 |
| 20260904155048 | 18 | 292 | 11.3 | 0.0 | 0.00 | 1.85 | 0.00 | 72 | 1052.7 |
| 20260904154918 | 18 | 270 | 16.1 | 0.0 | 0.00 | 1.85 | 0.00 | 72 | 1052.7 |
| 20260904154803 | 18 | 315 | 11.3 | 0.0 | 0.00 | 1.85 | 0.00 | 72 | 1052.7 |
| 20260904154646 | 18 | 337 | 25.7 | 0.0 | 0.00 | 1.85 | 0.00 | 72 | 1052.6 |
| 20260904154520 | 18 | 315 | 14.5 | 0.0 | 0.00 | 1.85 | 0.00 | 71 | 1052.6 |
| 20260904154415 | 18 | 270 | 19.3 | 0.0 | 0.00 | 1.85 | 0.00 | 72 | 1052.6 |
| 20260904154300 | 18 | 247 | 33.8 | 0.0 | 0.00 | 1.85 | 0.00 | 72 | 1052.6 |
| 20260904154138 | 19 | 270 | 19.3 | 0.0 | 0.00 | 1.85 | 0.00 | 73 | 1052.6 |
| 20260904154016 | 19 | 337 | 9.7 | 0.0 | 0.00 | 1.85 | 0.00 | 74 | 1052.5 |
| 20260904153847 | 19 | 337 | 14.5 | 0.0 | 0.00 | 1.85 | 0.00 | 75 | 1052.5 |
| 20260904153727 | 19 | 292 | 4.8 | 0.0 | 0.00 | 1.85 | 0.00 | 74 | 1052.6 |
| 20260904153623 | 19 | 315 | 27.4 | 0.0 | 0.00 | 1.85 | 0.00 | 75 | 1052.6 |
| 20260904153518 | 19 | 315 | 19.3 | 0.0 | 0.00 | 1.85 | 0.00 | 75 | 1052.5 |
| 20260904153412 | 19 | 270 | 30.6 | 0.0 | 0.00 | 1.85 | 0.00 | 75 | 1052.4 |
| 20260904153258 | 19 | 270 | 19.3 | 0.0 | 0.00 | 1.85 | 0.00 | 75 | 1052.3 |
| 20260904153144 | 19 | 315 | 11.3 | 0.0 | 0.00 | 1.85 | 0.00 | 75 | 1052.4 |
| 20260904153033 | 19 | 292 | 8.0 | 0.0 | 0.00 | 1.85 | 0.00 | 75 | 1052.3 |
| 20260904152921 | 19 | 0 | 8.0 | 0.0 | 0.00 | 1.85 | 0.00 | 75 | 1052.4 |
| 20260904152813 | 19 | 270 | 11.3 | 0.0 | 0.00 | 1.85 | 0.00 | 75 | 1052.3 |
| 20260904152653 | 19 | 270 | 9.7 | 0.0 | 0.00 | 1.85 | 0.00 | 75 | 1052.2 |
| 20260904152547 | 19 | 292 | 17.7 | 0.0 | 0.00 | 1.85 | 0.00 | 75 | 1052.2 |
| 20260904152442 | 19 | 337 | 11.3 | 0.0 | 0.00 | 1.85 | 0.00 | 75 | 1052.1 |
| 20260904152328 | 19 | 0 | 9.7 | 0.0 | 0.00 | 1.85 | 0.00 | 78 | 1052.2 |
| 20260904152200 | 19 | 0 | 17.7 | 0.0 | 0.00 | 1.85 | 0.00 | 78 | 1051.9 |
| 20260904152055 | 19 | 315 | 9.7 | 0.0 | 0.00 | 1.85 | 0.00 | 77 | 1051.9 |
| 20260904151933 | 19 | 292 | 8.0 | 0.0 | 0.00 | 1.85 | 0.00 | 76 | 1052.0 |
| 20260904151812 | 19 | 292 | 32.2 | 0.0 | 0.00 | 1.85 | 0.00 | 76 | 1052.0 |
| 20260904151646 | 19 | 292 | 27.4 | 0.0 | 0.00 | 1.85 | 0.00 | 76 | 1052.1 |
| 20260904151540 | 19 | 315 | 8.0 | 0.0 | 0.00 | 1.85 | 0.00 | 78 | 1052.1 |
| 20260904151433 | 19 | 315 | 6.4 | 0.0 | 0.00 | 1.85 | 0.00 | 78 | 1052.1 |
| 20260904151314 | 19 | 315 | 3.2 | 0.0 | 0.00 | 1.85 | 0.00 | 77 | 1052.0 |
| 20260904151200 | 19 | 292 | 20.9 | 0.0 | 0.00 | 1.85 | 0.00 | 77 | 1051.9 |
| 20260904151053 | 19 | 292 | 24.1 | 0.0 | 0.00 | 1.85 | 0.00 | 77 | 1052.0 |
| 20260904150933 | 19 | 337 | 8.0 | 0.0 | 0.00 | 1.85 | 0.00 | 77 | 1052.0 |
| 20260904150827 | 19 | 337 | 25.7 | 0.0 | 0.00 | 1.85 | 0.00 | 77 | 1052.1 |
| 20260904150715 | 19 | 270 | 12.9 | 0.0 | 0.00 | 1.85 | 0.00 | 78 | 1051.9 |
| 20260904150600 | 19 | 292 | 17.7 | 0.0 | 0.00 | 1.85 | 0.00 | 78 | 1051.8 |
| 20260904150439 | 19 | 292 | 17.7 | 0.0 | 0.00 | 1.85 | 0.00 | 79 | 1051.9 |
| 20260904150319 | 19 | 315 | 17.7 | 0.0 | 0.00 | 1.85 | 0.00 | 80 | 1051.9 |
| 20260904150216 | 19 | 270 | 3.2 | 0.0 | 0.00 | 1.85 | 0.00 | 80 | 1051.8 |
| 20260904150059 | 19 | 315 | 8.0 | 0.0 | 0.00 | 1.85 | 0.00 | 80 | 1051.8 |
| 20260904145938 | 19 | 270 | 183.5 | 0.0 | 0.00 | 1.85 | 0.00 | 79 | 1051.7 |
| 20260904145310 | 19 | 270 | 183.5 | 0.0 | 0.00 | 1.85 | 0.00 | 79 | 1051.8 |
| 20260904144646 | 19 | 270 | 183.5 | 0.0 | 0.00 | 1.85 | 0.00 | 81 | 1051.8 |
| 20260904144015 | 19 | 270 | 183.5 | 0.0 | 0.00 | 1.85 | 0.00 | 82 | 1051.5 |
| 20260904143345 | 19 | 270 | 183.5 | 0.0 | 0.00 | 1.85 | 0.00 | 82 | 1051.5 |
| 20260904142716 | 19 | 270 | 183.5 | 0.0 | 0.00 | 1.85 | 0.00 | 82 | 1051.3 |
| 20260904142044 | 19 | 270 | 183.5 | 0.0 | 0.00 | 1.85 | 0.00 | 83 | 1051.2 |
| 20260904141415 | 19 | 270 | 183.5 | 0.0 | 0.00 | 1.85 | 0.00 | 84 | 1051.1 |
| 20260904140745 | 19 | 270 | 183.5 | 0.0 | 0.00 | 1.85 | 0.00 | 85 | 1050.9 |
| 20260904140126 | 18 | 270 | 183.5 | 0.0 | 0.00 | 1.85 | 0.00 | 86 | 1050.8 |
| 20260904135541 | 18 | 270 | 183.5 | 0.0 | 0.00 | 1.85 | 0.00 | 86 | 1050.8 |
| 20260904134911 | 18 | 270 | 183.5 | 0.0 | 0.05 | 1.85 | 0.00 | 87 | 1050.7 |
| 20260904134241 | 18 | 270 | 183.5 | 0.0 | 0.05 | 1.85 | 0.00 | 87 | 1050.6 |
| 20260904133610 | 18 | 270 | 183.5 | 0.0 | 0.05 | 1.85 | 0.00 | 89 | 1050.5 |
| 20260904132917 | 18 | 270 | 183.5 | 0.0 | 0.05 | 1.85 | 0.00 | 91 | 1050.4 |
| 20260904132246 | 18 | 270 | 183.5 | 0.0 | 0.05 | 1.85 | 0.00 | 92 | 1050.5 |
| 20260904131637 | 17 | 270 | 183.5 | 0.0 | 0.05 | 1.85 | 0.00 | 92 | 1050.4 |
| 20260904130957 | 17 | 270 | 183.5 | 0.0 | 0.05 | 1.85 | 0.00 | 92 | 1050.5 |
| 20260904130349 | 17 | 270 | 183.5 | 0.0 | 0.05 | 1.85 | 0.00 | 92 | 1050.4 |
| 20260904125741 | 17 | 270 | 183.5 | 0.0 | 0.05 | 1.85 | 0.00 | 91 | 1050.3 |
| 20260904125119 | 17 | 270 | 183.5 | 0.0 | 0.00 | 1.80 | 0.00 | 89 | 1050.3 |
| 20260904124505 | 18 | 270 | 183.5 | 0.0 | 0.00 | 1.80 | 0.00 | 87 | 1050.3 |
| 20260904123827 | 18 | 270 | 183.5 | 0.0 | 0.00 | 1.80 | 0.00 | 87 | 1050.2 |
| 20260904123150 | 18 | 270 | 183.5 | 0.0 | 0.00 | 1.80 | 0.00 | 87 | 1050.2 |
| 20260904122519 | 18 | 270 | 183.5 | 0.0 | 0.00 | 1.80 | 0.00 | 88 | 1050.2 |
| 20260904121906 | 18 | 270 | 183.5 | 0.0 | 0.00 | 1.80 | 0.00 | 89 | 1049.9 |
| 20260904121227 | 18 | 270 | 183.5 | 0.0 | 0.00 | 1.80 | 0.00 | 90 | 1050.3 |
| 20260904120606 | 18 | 270 | 183.5 | 0.0 | 0.00 | 1.80 | 0.00 | 91 | 1050.0 |
| 20260904115944 | 18 | 270 | 183.5 | 0.0 | 0.00 | 1.80 | 0.00 | 92 | 1050.0 |
| 20260904115336 | 18 | 270 | 183.5 | 0.0 | 0.00 | 1.80 | 0.00 | 93 | 1050.1 |
| 20260904114721 | 18 | 270 | 183.5 | 0.0 | 0.00 | 1.80 | 0.00 | 93 | 1049.0 |
| 20260904114107 | 18 | 270 | 183.5 | 0.0 | 0.00 | 1.80 | 0.00 | 93 | 1049.0 |
| 20260904113454 | 18 | 270 | 183.5 | 0.0 | 0.00 | 1.80 | 0.00 | 92 | 1049.8 |
| 20260904112840 | 18 | 270 | 183.5 | 0.0 | 0.00 | 1.80 | 0.00 | 92 | 1049.7 |
| 20260904112226 | 18 | 270 | 183.5 | 0.0 | 0.00 | 1.80 | 0.00 | 92 | 1049.8 |
| 20260904111611 | 18 | 270 | 183.5 | 0.0 | 0.00 | 1.80 | 0.00 | 92 | 1050.2 |
| 20260904111005 | 18 | 270 | 183.5 | 0.0 | 0.00 | 1.80 | 0.00 | 92 | 1050.3 |
| 20260904110327 | 18 | 270 | 183.5 | 0.0 | 0.00 | 1.80 | 0.00 | 92 | 1050.4 |
| 20260904105656 | 18 | 270 | 183.5 | 0.0 | 0.00 | 1.80 | 0.00 | 93 | 1050.0 |
| 20260904105035 | 18 | 270 | 183.5 | 0.0 | 0.00 | 1.80 | 0.00 | 93 | 1049.9 |
| 20260904104412 | 18 | 270 | 183.5 | 0.0 | 0.00 | 1.80 | 0.00 | 94 | 1049.6 |
| 20260904103752 | 18 | 270 | 183.5 | 0.0 | 0.00 | 1.80 | 0.00 | 94 | 1049.8 |
| 20260904103146 | 18 | 270 | 183.5 | 0.0 | 0.00 | 1.80 | 0.00 | 94 | 1049.9 |
| 20260904102531 | 18 | 270 | 183.5 | 0.0 | 0.00 | 1.80 | 0.00 | 94 | 1050.1 |
| 20260904101926 | 17 | 270 | 183.5 | 0.0 | 0.00 | 1.80 | 0.00 | 95 | 1049.8 |
| 20260904101303 | 17 | 270 | 183.5 | 0.0 | 0.10 | 1.80 | 0.00 | 95 | 1049.8 |
| 20260904100706 | 17 | 270 | 183.5 | 0.0 | 0.15 | 1.80 | 0.00 | 95 | 1049.7 |
| 20260904100036 | 17 | 270 | 183.5 | 0.0 | 0.15 | 1.80 | 0.00 | 95 | 1049.8 |
| 20260904095422 | 17 | 270 | 183.5 | 0.0 | 0.15 | 1.85 | 0.00 | 95 | 1049.8 |
| 20260904094802 | 17 | 270 | 183.5 | 0.0 | 0.20 | 1.85 | 0.00 | 95 | 1049.8 |
| 20260904094203 | 17 | 270 | 183.5 | 0.0 | 0.20 | 1.85 | 0.00 | 95 | 1049.7 |
| 20260904093558 | 18 | 270 | 183.5 | 0.0 | 0.20 | 1.85 | 0.00 | 95 | 1049.9 |
| 20260904093017 | 18 | 270 | 183.5 | 0.0 | 0.25 | 1.85 | 0.00 | 94 | 1049.8 |
| 20260904092419 | 18 | 270 | 183.5 | 0.0 | 0.25 | 1.85 | 0.00 | 95 | 1049.6 |
| 20260904091757 | 18 | 270 | 183.5 | 0.0 | 0.25 | 1.80 | 0.00 | 95 | 1048.9 |
| 20260904091152 | 18 | 270 | 183.5 | 0.0 | 0.15 | 1.70 | 0.00 | 95 | 1048.7 |
| 20260904090529 | 18 | 270 | 183.5 | 0.0 | 0.20 | 1.70 | 0.00 | 95 | 1048.9 |
| 20260904085907 | 18 | 270 | 183.5 | 0.0 | 0.25 | 1.70 | 0.00 | 95 | 1049.0 |
| 20260904085310 | 18 | 270 | 183.5 | 0.0 | 0.25 | 1.65 | 0.00 | 95 | 1048.8 |
| 20260904084657 | 18 | 270 | 183.5 | 0.0 | 0.25 | 1.65 | 0.00 | 95 | 1048.9 |
| 20260904084042 | 18 | 270 | 183.5 | 0.0 | 0.30 | 1.65 | 0.00 | 94 | 1048.9 |
| 20260904083445 | 18 | 270 | 183.5 | 0.0 | 0.36 | 1.65 | 0.00 | 94 | 1049.1 |
| 20260904082847 | 18 | 270 | 183.5 | 0.0 | 0.36 | 1.60 | 0.00 | 94 | 1049.1 |
| 20260904082234 | 18 | 270 | 183.5 | 0.0 | 0.36 | 1.55 | 0.00 | 94 | 1048.9 |
| 20260904081605 | 17 | 270 | 183.5 | 0.0 | 0.36 | 1.55 | 0.00 | 94 | 1048.9 |
| 20260904080951 | 17 | 270 | 183.5 | 0.0 | 0.41 | 1.55 | 0.00 | 94 | 1049.0 |
| 20260904080321 | 17 | 270 | 183.5 | 0.0 | 0.79 | 1.50 | 0.00 | 94 | 1049.4 |
| 20260904075658 | 17 | 270 | 183.5 | 0.0 | 0.84 | 1.40 | 0.00 | 94 | 1049.5 |
| 20260904075021 | 17 | 270 | 183.5 | 0.0 | 0.94 | 1.40 | 0.00 | 94 | 1049.5 |
| 20260904074350 | 17 | 270 | 183.5 | 0.0 | 1.04 | 1.35 | 0.00 | 93 | 1049.6 |
| 20260904073721 | 17 | 270 | 183.5 | 0.0 | 1.04 | 1.30 | 0.00 | 93 | 1049.9 |
| 20260904073050 | 17 | 270 | 183.5 | 0.0 | 1.09 | 1.24 | 0.00 | 93 | 1050.0 |
| 20260904072421 | 17 | 270 | 183.5 | 0.0 | 1.04 | 1.19 | 0.00 | 93 | 1050.2 |
| 20260904071751 | 17 | 270 | 183.5 | 0.0 | 1.09 | 1.19 | 0.00 | 93 | 1050.4 |
| 20260904071121 | 17 | 270 | 183.5 | 0.0 | 0.99 | 1.09 | 0.00 | 93 | 1050.5 |
| 20260904070451 | 17 | 270 | 183.5 | 0.0 | 0.66 | 0.79 | 0.00 | 93 | 1051.0 |
| 20260904065820 | 17 | 270 | 183.5 | 0.0 | 0.46 | 0.56 | 0.00 | 92 | 1050.7 |
| 20260904065151 | 17 | 270 | 183.5 | 0.0 | 0.41 | 0.46 | 0.00 | 92 | 1050.5 |
| 20260904064520 | 17 | 270 | 183.5 | 0.0 | 0.30 | 0.36 | 0.00 | 92 | 1050.8 |
| 20260904063851 | 17 | 270 | 183.5 | 0.0 | 0.20 | 0.25 | 0.00 | 91 | 1050.7 |
| 20260904063233 | 17 | 270 | 183.5 | 0.0 | 0.10 | 0.15 | 0.00 | 90 | 1050.9 |
| 20260904062604 | 18 | 270 | 183.5 | 0.0 | 0.10 | 0.15 | 0.00 | 90 | 1050.7 |
| 20260904061949 | 18 | 270 | 183.5 | 0.0 | 0.05 | 0.10 | 0.00 | 90 | 1051.4 |
| 20260904061318 | 18 | 270 | 183.5 | 0.0 | 0.05 | 0.10 | 0.00 | 90 | 1051.2 |
| 20260904060648 | 18 | 270 | 183.5 | 0.0 | 0.05 | 0.10 | 0.00 | 92 | 1051.2 |
| 20260904060033 | 18 | 270 | 183.5 | 0.0 | 0.05 | 0.10 | 0.00 | 92 | 1051.4 |
| 20260904055426 | 18 | 270 | 183.5 | 0.0 | 0.05 | 0.10 | 0.00 | 92 | 1051.5 |
| 20260904054830 | 18 | 270 | 183.5 | 0.0 | 0.00 | 0.05 | 0.00 | 92 | 1051.7 |
| 20260904054227 | 18 | 270 | 183.5 | 0.0 | 0.00 | 0.05 | 0.00 | 92 | 1051.9 |
| 20260904053607 | 18 | 270 | 183.5 | 0.0 | 0.00 | 0.05 | 0.00 | 92 | 1051.9 |
| 20260904052948 | 18 | 270 | 183.5 | 0.0 | 0.00 | 0.05 | 0.00 | 91 | 1052.0 |
| 20260904052346 | 18 | 270 | 183.5 | 0.0 | 0.00 | 0.05 | 0.00 | 91 | 1051.9 |
| 20260904051759 | 18 | 270 | 183.5 | 0.0 | 0.00 | 0.05 | 0.00 | 91 | 1051.9 |
| 20260904051158 | 18 | 270 | 183.5 | 0.0 | 0.00 | 0.05 | 0.00 | 91 | 1051.9 |
| 20260904050542 | 18 | 270 | 183.5 | 0.0 | 0.00 | 0.05 | 0.00 | 90 | 1052.1 |
| 20260904045937 | 18 | 270 | 14.5 | 0.0 | 0.00 | 0.05 | 0.00 | 90 | 1052.2 |
| 20260904045824 | 18 | 292 | 9.7 | 0.0 | 0.00 | 0.05 | 0.00 | 90 | 1052.0 |
| 20260904045721 | 18 | 270 | 9.7 | 0.0 | 0.00 | 0.05 | 0.00 | 90 | 1052.1 |
| 20260904045615 | 18 | 247 | 6.4 | 0.0 | 0.00 | 0.05 | 0.00 | 90 | 1052.2 |
| 20260904045509 | 18 | 292 | 9.7 | 0.0 | 0.00 | 0.05 | 0.00 | 90 | 1052.3 |
| 20260904045403 | 18 | 315 | 16.1 | 0.0 | 0.00 | 0.05 | 0.00 | 90 | 1052.3 |
| 20260904045258 | 18 | 270 | 19.3 | 0.0 | 0.00 | 0.05 | 0.00 | 90 | 1052.3 |
| 20260904045145 | 18 | 270 | 9.7 | 0.0 | 0.00 | 0.05 | 0.00 | 89 | 1052.2 |
| 20260904045040 | 18 | 270 | 19.3 | 0.0 | 0.00 | 0.05 | 0.00 | 89 | 1052.1 |
| 20260904044928 | 18 | 270 | 14.5 | 0.0 | 0.00 | 0.05 | 0.00 | 89 | 1052.1 |
| 20260904044821 | 19 | 292 | 20.9 | 0.0 | 0.00 | 0.05 | 0.00 | 89 | 1052.0 |
| 20260904044707 | 19 | 292 | 14.5 | 0.0 | 0.00 | 0.05 | 0.00 | 89 | 1052.1 |
| 20260904044554 | 19 | 270 | 30.6 | 0.0 | 0.00 | 0.05 | 0.00 | 89 | 1052.1 |
| 20260904044447 | 18 | 292 | 12.9 | 0.0 | 0.00 | 0.05 | 0.00 | 89 | 1052.2 |
| 20260904044342 | 18 | 270 | 4.8 | 0.0 | 0.00 | 0.05 | 0.00 | 89 | 1052.2 |
| 20260904044236 | 19 | 270 | 20.9 | 0.0 | 0.00 | 0.05 | 0.00 | 89 | 1052.2 |
| 20260904044122 | 19 | 270 | 9.7 | 0.0 | 0.00 | 0.05 | 0.00 | 89 | 1052.2 |
| 20260904043959 | 19 | 225 | 4.8 | 0.0 | 0.00 | 0.05 | 0.00 | 89 | 1052.3 |
| 20260904043845 | 19 | 270 | 24.1 | 0.0 | 0.00 | 0.05 | 0.00 | 89 | 1052.3 |
| 20260904043722 | 19 | 247 | 12.9 | 0.0 | 0.00 | 0.05 | 0.00 | 89 | 1052.3 |
| 20260904043610 | 19 | 247 | 24.1 | 0.0 | 0.00 | 0.05 | 0.00 | 89 | 1052.3 |
| 20260904043455 | 19 | 270 | 17.7 | 0.0 | 0.00 | 0.05 | 0.00 | 89 | 1052.3 |
| 20260904043336 | 19 | 247 | 11.3 | 0.0 | 0.00 | 0.05 | 0.00 | 89 | 1052.3 |
| 20260904043225 | 19 | 270 | 16.1 | 0.0 | 0.00 | 0.05 | 0.00 | 88 | 1052.4 |
| 20260904043117 | 19 | 270 | 9.7 | 0.0 | 0.00 | 0.05 | 0.00 | 88 | 1052.4 |
| 20260904042958 | 19 | 202 | 3.2 | 0.0 | 0.00 | 0.05 | 0.00 | 88 | 1052.3 |
| 20260904042853 | 19 | 180 | 11.3 | 0.0 | 0.00 | 0.05 | 0.00 | 88 | 1052.5 |
| 20260904042746 | 19 | 247 | 11.3 | 0.0 | 0.00 | 0.05 | 0.00 | 88 | 1052.4 |
| 20260904042626 | 19 | 270 | 11.3 | 0.0 | 0.00 | 0.05 | 0.00 | 88 | 1052.4 |
| 20260904042520 | 19 | 270 | 17.7 | 0.0 | 0.00 | 0.05 | 0.00 | 88 | 1052.4 |
| 20260904042407 | 19 | 247 | 14.5 | 0.0 | 0.00 | 0.05 | 0.00 | 88 | 1052.5 |
| 20260904042305 | 19 | 270 | 20.9 | 0.0 | 0.00 | 0.05 | 0.00 | 88 | 1052.5 |
| 20260904042140 | 19 | 202 | 12.9 | 0.0 | 0.00 | 0.05 | 0.00 | 88 | 1052.5 |
| 20260904042019 | 19 | 247 | 25.7 | 0.0 | 0.00 | 0.05 | 0.00 | 88 | 1052.5 |
| 20260904041905 | 19 | 270 | 14.5 | 0.0 | 0.00 | 0.05 | 0.00 | 88 | 1052.5 |
| 20260904041756 | 19 | 247 | 17.7 | 0.0 | 0.00 | 0.05 | 0.00 | 88 | 1052.6 |
| 20260904041649 | 19 | 270 | 24.1 | 0.0 | 0.00 | 0.05 | 0.00 | 88 | 1052.6 |
| 20260904041535 | 19 | 270 | 19.3 | 0.0 | 0.00 | 0.05 | 0.00 | 88 | 1052.7 |
| 20260904041415 | 19 | 270 | 4.8 | 0.0 | 0.00 | 0.05 | 0.00 | 88 | 1052.6 |
| 20260904041307 | 19 | 202 | 19.3 | 0.0 | 0.00 | 0.05 | 0.00 | 88 | 1052.6 |
| 20260904041156 | 19 | 292 | 14.5 | 0.0 | 0.00 | 0.05 | 0.00 | 88 | 1052.6 |
| 20260904041050 | 19 | 270 | 22.5 | 0.0 | 0.00 | 0.05 | 0.00 | 88 | 1052.6 |
| 20260904040928 | 19 | 247 | 9.7 | 0.0 | 0.00 | 0.05 | 0.00 | 88 | 1052.5 |
| 20260904040810 | 19 | 270 | 14.5 | 0.0 | 0.00 | 0.05 | 0.00 | 88 | 1052.5 |
| 20260904040702 | 19 | 270 | 12.9 | 0.0 | 0.00 | 0.05 | 0.00 | 88 | 1052.6 |
| 20260904040541 | 19 | 247 | 6.4 | 0.0 | 0.00 | 0.05 | 0.00 | 88 | 1052.6 |
| 20260904040421 | 19 | 270 | 14.5 | 0.0 | 0.00 | 0.05 | 0.00 | 88 | 1052.6 |
| 20260904040315 | 19 | 225 | 19.3 | 0.0 | 0.00 | 0.05 | 0.00 | 88 | 1052.7 |
| 20260904040205 | 19 | 270 | 11.3 | 0.0 | 0.00 | 0.05 | 0.00 | 88 | 1052.8 |
| 20260904040057 | 19 | 202 | 3.2 | 0.0 | 0.00 | 0.05 | 0.00 | 88 | 1052.7 |
| 20260904035943 | 19 | 202 | 12.9 | 0.0 | 0.00 | 0.05 | 0.00 | 88 | 1052.7 |
| 20260904035824 | 19 | 247 | 11.3 | 0.0 | 0.00 | 0.05 | 0.00 | 88 | 1052.7 |
| 20260904035718 | 19 | 247 | 3.2 | 0.0 | 0.00 | 0.05 | 0.00 | 88 | 1052.7 |
| 20260904035604 | 19 | 225 | 9.7 | 0.0 | 0.00 | 0.05 | 0.00 | 88 | 1052.7 |
| 20260904035452 | 19 | 247 | 8.0 | 0.0 | 0.00 | 0.05 | 0.00 | 88 | 1052.7 |
| 20260904035345 | 19 | 247 | 20.9 | 0.0 | 0.00 | 0.05 | 0.00 | 88 | 1052.7 |
| 20260904035233 | 19 | 247 | 6.4 | 0.0 | 0.00 | 0.05 | 0.00 | 88 | 1052.7 |
| 20260904035121 | 19 | 225 | 4.8 | 0.0 | 0.00 | 0.05 | 0.00 | 88 | 1052.7 |
| 20260904035007 | 19 | 270 | 12.9 | 0.0 | 0.00 | 0.05 | 0.00 | 88 | 1052.7 |
| 20260904034853 | 19 | 225 | 12.9 | 0.0 | 0.00 | 0.05 | 0.00 | 88 | 1052.7 |
| 20260904034539 | 19 | 157 | 183.5 | 0.0 | 0.00 | 0.05 | 0.00 | 89 | 1052.8 |
| 20260904033909 | 19 | 157 | 183.5 | 0.0 | 0.00 | 0.05 | 0.00 | 90 | 1052.8 |
| 20260904033247 | 19 | 157 | 183.5 | 0.0 | 0.00 | 0.05 | 0.00 | 91 | 1052.9 |
| 20260904032641 | 19 | 157 | 183.5 | 0.0 | 0.00 | 0.05 | 0.00 | 92 | 1053.0 |
| 20260904032009 | 18 | 157 | 183.5 | 0.0 | 0.00 | 0.05 | 0.00 | 92 | 1053.2 |
| 20260904031407 | 18 | 157 | 183.5 | 0.0 | 0.00 | 0.05 | 0.00 | 92 | 1053.2 |
| 20260904030753 | 18 | 157 | 183.5 | 0.0 | 0.00 | 0.05 | 0.00 | 93 | 1053.3 |
| 20260904030142 | 18 | 157 | 183.5 | 0.0 | 0.00 | 0.05 | 0.00 | 93 | 1053.5 |
| 20260904025542 | 18 | 157 | 183.5 | 0.0 | 0.00 | 0.05 | 0.00 | 93 | 1053.4 |
| 20260904024920 | 18 | 157 | 183.5 | 0.0 | 0.00 | 0.05 | 0.00 | 93 | 1053.6 |
| 20260904024314 | 18 | 157 | 183.5 | 0.0 | 0.00 | 0.05 | 0.00 | 93 | 1053.7 |
| 20260904023644 | 18 | 157 | 183.5 | 0.0 | 0.00 | 0.05 | 0.00 | 93 | 1053.6 |
| 20260904023024 | 18 | 157 | 183.5 | 0.0 | 0.00 | 0.05 | 0.00 | 93 | 1053.7 |
| 20260904022401 | 18 | 157 | 183.5 | 0.0 | 0.00 | 0.05 | 0.00 | 93 | 1054.0 |
| 20260904021739 | 18 | 157 | 183.5 | 0.0 | 0.00 | 0.05 | 0.00 | 93 | 1054.3 |
| 20260904021117 | 18 | 157 | 183.5 | 0.0 | 0.00 | 0.05 | 0.00 | 93 | 1054.2 |
| 20260904020504 | 18 | 157 | 183.5 | 0.0 | 0.00 | 0.05 | 0.00 | 93 | 1054.2 |
| 20260904015905 | 18 | 157 | 183.5 | 0.0 | 0.00 | 0.05 | 0.00 | 93 | 1054.3 |
| 20260904015244 | 18 | 157 | 183.5 | 0.0 | 0.00 | 0.05 | 0.00 | 93 | 1054.3 |
| 20260904014622 | 18 | 247 | 0.0 | 0.0 | 0.00 | 0.05 | 0.00 | 93 | 1054.4 |
| 20260904014350 | 18 | 225 | 20.9 | 0.0 | 0.00 | 0.05 | 0.00 | 93 | 1054.5 |
| 20260904014244 | 18 | 202 | 9.7 | 0.0 | 0.00 | 0.05 | 0.00 | 93 | 1054.4 |
| 20260904014138 | 18 | 202 | 8.0 | 0.0 | 0.00 | 0.05 | 0.00 | 93 | 1054.5 |
| 20260904014025 | 18 | 180 | 11.3 | 0.0 | 0.00 | 0.05 | 0.00 | 93 | 1054.5 |
| 20260904013921 | 18 | 202 | 0.0 | 0.0 | 0.00 | 0.05 | 0.00 | 93 | 1054.6 |
| 20260904013815 | 18 | 202 | 11.3 | 0.0 | 0.00 | 0.05 | 0.00 | 93 | 1054.6 |
| 20260904013710 | 18 | 225 | 14.5 | 0.0 | 0.00 | 0.05 | 0.00 | 93 | 1054.6 |
| 20260904013604 | 18 | 157 | 6.4 | 0.0 | 0.00 | 0.05 | 0.00 | 93 | 1054.7 |
| 20260904013435 | 18 | 180 | 8.0 | 0.0 | 0.00 | 0.05 | 0.00 | 93 | 1054.7 |
| 20260904013322 | 18 | 157 | 8.0 | 0.0 | 0.00 | 0.05 | 0.00 | 93 | 1054.8 |
| 20260904013217 | 18 | 225 | 12.9 | 0.0 | 0.00 | 0.05 | 0.00 | 93 | 1054.8 |
| 20260904013055 | 18 | 202 | 8.0 | 0.0 | 0.00 | 0.05 | 0.00 | 93 | 1054.9 |
| 20260904012935 | 18 | 180 | 9.7 | 0.0 | 0.00 | 0.05 | 0.00 | 93 | 1054.9 |
| 20260904012822 | 18 | 270 | 6.4 | 0.0 | 0.00 | 0.05 | 0.00 | 93 | 1054.9 |
| 20260904012716 | 18 | 225 | 11.3 | 0.0 | 0.00 | 0.05 | 0.00 | 93 | 1055.0 |
| 20260904012555 | 18 | 180 | 6.4 | 0.0 | 0.00 | 0.05 | 0.00 | 93 | 1055.2 |
| 20260904012442 | 18 | 180 | 0.0 | 0.0 | 0.00 | 0.05 | 0.00 | 93 | 1055.1 |
| 20260904012330 | 18 | 202 | 4.8 | 0.0 | 0.00 | 0.05 | 0.00 | 93 | 1055.1 |
| 20260904012224 | 18 | 180 | 11.3 | 0.0 | 0.00 | 0.05 | 0.00 | 93 | 1055.1 |
| 20260904012111 | 18 | 180 | 6.4 | 0.0 | 0.00 | 0.05 | 0.00 | 93 | 1055.2 |
| 20260904011949 | 18 | 202 | 11.3 | 0.0 | 0.00 | 0.05 | 0.00 | 93 | 1055.2 |
| 20260904011836 | 18 | 202 | 9.7 | 0.0 | 0.00 | 0.05 | 0.00 | 93 | 1055.1 |
| 20260904011715 | 18 | 202 | 6.4 | 0.0 | 0.00 | 0.05 | 0.00 | 93 | 1055.2 |
| 20260904011603 | 18 | 180 | 9.7 | 0.0 | 0.00 | 0.05 | 0.00 | 93 | 1055.3 |
| 20260904011450 | 18 | 202 | 11.3 | 0.0 | 0.00 | 0.05 | 0.00 | 93 | 1055.2 |
| 20260904011343 | 18 | 225 | 11.3 | 0.0 | 0.00 | 0.05 | 0.00 | 93 | 1055.3 |
| 20260904011225 | 18 | 225 | 9.7 | 0.0 | 0.00 | 0.05 | 0.00 | 93 | 1055.3 |
| 20260904011118 | 18 | 202 | 16.1 | 0.0 | 0.00 | 0.05 | 0.00 | 93 | 1055.3 |
| 20260904011005 | 18 | 180 | 3.2 | 0.0 | 0.00 | 0.05 | 0.00 | 93 | 1055.4 |
| 20260904010900 | 18 | 225 | 6.4 | 0.0 | 0.00 | 0.05 | 0.00 | 93 | 1055.4 |
| 20260904010756 | 18 | 202 | 14.5 | 0.0 | 0.00 | 0.05 | 0.00 | 93 | 1055.5 |
| 20260904010650 | 18 | 202 | 6.4 | 0.0 | 0.00 | 0.05 | 0.00 | 93 | 1055.5 |
| 20260904010545 | 18 | 180 | 0.0 | 0.0 | 0.00 | 0.05 | 0.00 | 93 | 1055.5 |
| 20260904010432 | 18 | 202 | 16.1 | 0.0 | 0.00 | 0.05 | 0.00 | 93 | 1055.5 |
| 20260904010312 | 18 | 202 | 4.8 | 0.0 | 0.00 | 0.05 | 0.00 | 93 | 1055.6 |
| 20260904005946 | 18 | 247 | 11.3 | 0.0 | 0.00 | 0.05 | 0.00 | 93 | 1055.7 |
| 20260904005835 | 18 | 202 | 8.0 | 0.0 | 0.00 | 0.05 | 0.00 | 92 | 1055.5 |
| 20260904005729 | 18 | 180 | 0.0 | 0.0 | 0.00 | 0.05 | 0.00 | 92 | 1055.6 |
| 20260904005616 | 18 | 247 | 3.2 | 0.0 | 0.00 | 0.05 | 0.00 | 93 | 1055.7 |
| 20260904005513 | 18 | 180 | 0.0 | 0.0 | 0.00 | 0.05 | 0.00 | 92 | 1055.7 |
| 20260904005358 | 18 | 247 | 6.4 | 0.0 | 0.00 | 0.05 | 0.00 | 92 | 1055.8 |
| 20260904005245 | 18 | 157 | 0.0 | 0.0 | 0.00 | 0.05 | 0.00 | 92 | 1055.9 |
| 20260904005139 | 18 | 202 | 0.0 | 0.0 | 0.00 | 0.05 | 0.00 | 92 | 1055.9 |
| 20260904005034 | 18 | 225 | 0.0 | 0.0 | 0.00 | 0.05 | 0.00 | 92 | 1055.9 |
| 20260904004928 | 18 | 180 | 4.8 | 0.0 | 0.00 | 0.05 | 0.00 | 92 | 1055.9 |
| 20260904004813 | 18 | 202 | 8.0 | 0.0 | 0.00 | 0.05 | 0.00 | 92 | 1055.9 |
| 20260904004702 | 18 | 157 | 9.7 | 0.0 | 0.00 | 0.05 | 0.00 | 92 | 1056.0 |
| 20260904004553 | 18 | 180 | 11.3 | 0.0 | 0.00 | 0.05 | 0.00 | 92 | 1056.0 |
| 20260904004439 | 18 | 202 | 9.7 | 0.0 | 0.00 | 0.05 | 0.00 | 92 | 1056.0 |
| 20260904004325 | 17 | 202 | 0.0 | 0.0 | 0.00 | 0.05 | 0.00 | 92 | 1056.0 |
| 20260904004219 | 17 | 180 | 0.0 | 0.0 | 0.00 | 0.05 | 0.00 | 92 | 1056.0 |
| 20260904004113 | 17 | 180 | 0.0 | 0.0 | 0.00 | 0.05 | 0.00 | 92 | 1056.0 |
| 20260904004007 | 17 | 180 | 0.0 | 0.0 | 0.00 | 0.05 | 0.00 | 92 | 1056.1 |
| 20260904003901 | 17 | 180 | 14.5 | 0.0 | 0.00 | 0.05 | 0.00 | 92 | 1056.1 |
| 20260904003756 | 17 | 180 | 4.8 | 0.0 | 0.00 | 0.05 | 0.00 | 92 | 1056.1 |
| 20260904003651 | 17 | 180 | 0.0 | 0.0 | 0.00 | 0.05 | 0.00 | 92 | 1056.1 |
| 20260904003545 | 17 | 225 | 6.4 | 0.0 | 0.00 | 0.05 | 0.00 | 91 | 1056.0 |
| 20260904003440 | 17 | 202 | 9.7 | 0.0 | 0.00 | 0.05 | 0.00 | 91 | 1056.2 |
| 20260904003334 | 17 | 202 | 0.0 | 0.0 | 0.00 | 0.05 | 0.00 | 91 | 1056.2 |
| 20260904003221 | 17 | 180 | 0.0 | 0.0 | 0.00 | 0.05 | 0.00 | 91 | 1056.1 |
| 20260904003108 | 17 | 180 | 0.0 | 0.0 | 0.00 | 0.05 | 0.00 | 91 | 1056.2 |
| 20260904002955 | 17 | 202 | 6.4 | 0.0 | 0.00 | 0.05 | 0.00 | 91 | 1056.2 |
| 20260904002842 | 17 | 202 | 9.7 | 0.0 | 0.00 | 0.05 | 0.00 | 91 | 1056.2 |
| 20260904002737 | 17 | 202 | 6.4 | 0.0 | 0.00 | 0.05 | 0.00 | 91 | 1056.2 |
| 20260904002632 | 17 | 202 | 4.8 | 0.0 | 0.00 | 0.05 | 0.00 | 91 | 1056.2 |
| 20260904002525 | 17 | 202 | 6.4 | 0.0 | 0.00 | 0.05 | 0.00 | 91 | 1056.1 |
| 20260904002420 | 17 | 180 | 6.4 | 0.0 | 0.00 | 0.05 | 0.00 | 91 | 1056.2 |
| 20260904002313 | 17 | 180 | 14.5 | 0.0 | 0.00 | 0.05 | 0.00 | 91 | 1056.3 |
| 20260904002152 | 17 | 202 | 16.1 | 0.0 | 0.00 | 0.05 | 0.00 | 91 | 1056.3 |
| 20260904002046 | 17 | 202 | 8.0 | 0.0 | 0.00 | 0.05 | 0.00 | 91 | 1056.4 |
| 20260904001932 | 17 | 225 | 8.0 | 0.0 | 0.00 | 0.05 | 0.00 | 91 | 1056.3 |
| 20260904001817 | 17 | 202 | 6.4 | 0.0 | 0.00 | 0.05 | 0.00 | 91 | 1056.4 |
| 20260904001655 | 17 | 180 | 0.0 | 0.0 | 0.00 | 0.05 | 0.00 | 91 | 1056.4 |
| 20260904001542 | 17 | 247 | 0.0 | 0.0 | 0.00 | 0.05 | 0.00 | 91 | 1056.5 |
| 20260904001429 | 17 | 247 | 0.0 | 0.0 | 0.00 | 0.05 | 0.00 | 91 | 1056.4 |
| 20260904001325 | 17 | 225 | 0.0 | 0.0 | 0.00 | 0.05 | 0.00 | 91 | 1056.5 |
| 20260904001218 | 17 | 157 | 0.0 | 0.0 | 0.00 | 0.05 | 0.00 | 91 | 1056.4 |
| 20260904001113 | 17 | 225 | 1.6 | 0.0 | 0.00 | 0.05 | 0.00 | 91 | 1056.4 |
| 20260904001006 | 17 | 225 | 9.7 | 0.0 | 0.00 | 0.05 | 0.00 | 91 | 1056.4 |
| 20260904000854 | 17 | 202 | 8.0 | 0.0 | 0.00 | 0.05 | 0.00 | 91 | 1056.4 |
| 20260904000749 | 17 | 202 | 0.0 | 0.0 | 0.00 | 0.05 | 0.00 | 91 | 1056.4 |
| 20260904000644 | 17 | 180 | 12.9 | 0.0 | 0.00 | 0.05 | 0.00 | 90 | 1056.4 |
| 20260904000537 | 17 | 202 | 11.3 | 0.0 | 0.00 | 0.05 | 0.00 | 90 | 1056.4 |
| 20260904000425 | 17 | 202 | 6.4 | 0.0 | 0.00 | 0.05 | 0.00 | 90 | 1056.5 |
| 20260904000312 | 17 | 202 | 0.0 | 0.0 | 0.00 | 0.05 | 0.00 | 90 | 1056.6 |
| 20260904000156 | 17 | 202 | 3.2 | 0.0 | 0.00 | 0.05 | 0.00 | 90 | 1056.7 |
| 20260904000044 | 17 | 202 | 0.0 | 0.0 | 0.00 | 0.05 | 0.00 | 90 | 1056.7 |
| 20260903235930 | 17 | 180 | 4.8 | 0.0 | 0.00 | 0.05 | 0.00 | 90 | 1056.7 |
| 20260903235817 | 17 | 225 | 6.4 | 0.0 | 0.00 | 0.05 | 0.00 | 90 | 1056.7 |
| 20260903235712 | 17 | 225 | 6.4 | 0.0 | 0.00 | 0.05 | 0.00 | 90 | 1056.7 |
| 20260903235558 | 17 | 202 | 0.0 | 0.0 | 0.00 | 0.05 | 0.00 | 90 | 1056.7 |
| 20260903235446 | 17 | 225 | 3.2 | 0.0 | 0.00 | 0.05 | 0.00 | 90 | 1056.7 |
| 20260903235332 | 17 | 180 | 6.4 | 0.0 | 0.00 | 0.05 | 0.00 | 89 | 1056.7 |
| 20260903235219 | 17 | 202 | 4.8 | 0.0 | 0.00 | 0.05 | 0.00 | 89 | 1056.7 |
| 20260903235058 | 17 | 225 | 9.7 | 0.0 | 0.00 | 0.05 | 0.00 | 89 | 1056.8 |
| 20260903234929 | 17 | 202 | 8.0 | 0.0 | 0.00 | 0.05 | 0.00 | 89 | 1056.9 |
| 20260903234824 | 17 | 180 | 0.0 | 0.0 | 0.00 | 0.05 | 0.00 | 89 | 1056.9 |
| 20260903234710 | 17 | 180 | 3.2 | 0.0 | 0.00 | 0.05 | 0.00 | 89 | 1056.9 |
| 20260903234542 | 17 | 180 | 8.0 | 0.0 | 0.00 | 0.05 | 0.00 | 89 | 1056.9 |
| 20260903234436 | 17 | 180 | 4.8 | 0.0 | 0.00 | 0.05 | 0.00 | 89 | 1057.0 |
| 20260903234317 | 17 | 202 | 0.0 | 0.0 | 0.00 | 0.05 | 0.00 | 89 | 1057.0 |
| 20260903234210 | 17 | 180 | 8.0 | 0.0 | 0.00 | 0.05 | 0.00 | 89 | 1056.9 |
| 20260903234042 | 17 | 225 | 0.0 | 0.0 | 0.00 | 0.05 | 0.00 | 89 | 1056.9 |
| 20260903233936 | 17 | 180 | 6.4 | 0.0 | 0.00 | 0.05 | 0.00 | 89 | 1057.0 |
| 20260903233833 | 17 | 180 | 0.0 | 0.0 | 0.00 | 0.05 | 0.00 | 89 | 1056.9 |
| 20260903233728 | 17 | 202 | 0.0 | 0.0 | 0.00 | 0.05 | 0.00 | 89 | 1056.9 |
| 20260903233613 | 17 | 270 | 0.0 | 0.0 | 0.00 | 0.05 | 0.00 | 89 | 1057.1 |
| 20260903233452 | 17 | 202 | 0.0 | 0.0 | 0.00 | 0.05 | 0.00 | 89 | 1057.1 |
| 20260903233347 | 17 | 202 | 0.0 | 0.0 | 0.00 | 0.05 | 0.00 | 89 | 1057.2 |
| 20260903233227 | 17 | 180 | 0.0 | 0.0 | 0.00 | 0.05 | 0.00 | 89 | 1057.1 |
| 20260903233119 | 17 | 180 | 6.4 | 0.0 | 0.00 | 0.05 | 0.00 | 89 | 1057.2 |
| 20260903233000 | 17 | 202 | 0.0 | 0.0 | 0.00 | 0.05 | 0.00 | 89 | 1057.2 |
| 20260903232838 | 17 | 202 | 6.4 | 0.0 | 0.00 | 0.05 | 0.00 | 88 | 1057.3 |
| 20260903232715 | 17 | 202 | 0.0 | 0.0 | 0.00 | 0.05 | 0.00 | 88 | 1057.3 |
| 20260903232555 | 17 | 202 | 8.0 | 0.0 | 0.00 | 0.05 | 0.00 | 88 | 1057.2 |
| 20260903232434 | 17 | 202 | 0.0 | 0.0 | 0.00 | 0.05 | 0.00 | 88 | 1057.3 |
| 20260903232329 | 17 | 225 | 6.4 | 0.0 | 0.00 | 0.05 | 0.00 | 88 | 1057.3 |
| 20260903232207 | 17 | 225 | 0.0 | 0.0 | 0.00 | 0.05 | 0.00 | 88 | 1057.3 |
| 20260903232046 | 17 | 180 | 0.0 | 0.0 | 0.00 | 0.05 | 0.00 | 88 | 1057.3 |
| 20260903231925 | 17 | 225 | 0.0 | 0.0 | 0.00 | 0.05 | 0.00 | 88 | 1057.3 |
| 20260903231756 | 17 | 180 | 0.0 | 0.0 | 0.00 | 0.05 | 0.00 | 88 | 1057.3 |
| 20260903231637 | 17 | 247 | 0.0 | 0.0 | 0.00 | 0.05 | 0.00 | 88 | 1057.3 |
| 20260903231530 | 17 | 202 | 0.0 | 0.0 | 0.00 | 0.05 | 0.00 | 88 | 1057.4 |
| 20260903231416 | 17 | 157 | 0.0 | 0.0 | 0.00 | 0.05 | 0.00 | 88 | 1057.4 |
| 20260903231250 | 17 | 225 | 0.0 | 0.0 | 0.00 | 0.05 | 0.00 | 88 | 1057.5 |
| 20260903231143 | 17 | 157 | 3.2 | 0.0 | 0.00 | 0.05 | 0.00 | 88 | 1057.4 |
| 20260903231039 | 17 | 180 | 0.0 | 0.0 | 0.00 | 0.05 | 0.00 | 88 | 1057.5 |
| 20260903230933 | 17 | 247 | 0.0 | 0.0 | 0.00 | 0.05 | 0.00 | 88 | 1057.5 |
| 20260903230827 | 17 | 202 | 1.6 | 0.0 | 0.00 | 0.05 | 0.00 | 88 | 1057.5 |
| 20260903230657 | 17 | 157 | 8.0 | 0.0 | 0.00 | 0.05 | 0.00 | 88 | 1057.6 |
| 20260903230536 | 17 | 270 | 0.0 | 0.0 | 0.00 | 0.05 | 0.00 | 88 | 1057.6 |
| 20260903230407 | 17 | 202 | 4.8 | 0.0 | 0.00 | 0.05 | 0.00 | 88 | 1057.7 |
| 20260903230245 | 17 | 225 | 0.0 | 0.0 | 0.00 | 0.05 | 0.00 | 87 | 1057.7 |
| 20260903230127 | 17 | 247 | 0.0 | 0.0 | 0.00 | 0.05 | 0.00 | 87 | 1057.8 |
| 20260903230020 | 17 | 247 | 0.0 | 0.0 | 0.00 | 0.05 | 0.00 | 87 | 1057.7 |
| 20260903225909 | 17 | 247 | 0.0 | 0.0 | 0.00 | 0.05 | 0.00 | 87 | 1057.8 |
| 20260903225802 | 17 | 247 | 0.0 | 0.0 | 0.00 | 0.05 | 0.00 | 87 | 1057.7 |
| 20260903225657 | 17 | 270 | 0.0 | 0.0 | 0.00 | 0.05 | 0.00 | 87 | 1057.8 |
| 20260903225551 | 17 | 202 | 0.0 | 0.0 | 0.00 | 0.05 | 0.00 | 87 | 1057.8 |
| 20260903225438 | 17 | 225 | 0.0 | 0.0 | 0.00 | 0.05 | 0.00 | 87 | 1057.6 |
| 20260903225318 | 17 | 202 | 0.0 | 0.0 | 0.00 | 0.05 | 0.00 | 87 | 1057.8 |
| 20260903225214 | 17 | 225 | 0.0 | 0.0 | 0.00 | 0.05 | 0.00 | 87 | 1057.6 |
| 20260903225107 | 17 | 202 | 8.0 | 0.0 | 0.00 | 0.05 | 0.00 | 87 | 1057.6 |
| 20260903224937 | 17 | 225 | 8.0 | 0.0 | 0.00 | 0.05 | 0.00 | 86 | 1057.7 |
| 20260903224824 | 17 | 202 | 12.9 | 0.0 | 0.00 | 0.05 | 0.00 | 86 | 1057.8 |
| 20260903224712 | 17 | 202 | 0.0 | 0.0 | 0.00 | 0.05 | 0.00 | 86 | 1057.8 |
| 20260903224607 | 17 | 180 | 9.7 | 0.0 | 0.00 | 0.05 | 0.00 | 86 | 1057.6 |
| 20260903224455 | 17 | 225 | 0.0 | 0.0 | 0.00 | 0.05 | 0.00 | 86 | 1057.7 |
| 20260903224343 | 17 | 202 | 9.7 | 0.0 | 0.00 | 0.05 | 0.00 | 86 | 1057.7 |
| 20260903224235 | 17 | 247 | 0.0 | 0.0 | 0.00 | 0.05 | 0.00 | 86 | 1057.7 |
| 20260903224115 | 17 | 225 | 0.0 | 0.0 | 0.00 | 0.05 | 0.00 | 86 | 1057.7 |
| 20260903224003 | 17 | 247 | 0.0 | 0.0 | 0.00 | 0.05 | 0.00 | 86 | 1057.9 |
| 20260903223857 | 17 | 247 | 4.8 | 0.0 | 0.00 | 0.05 | 0.00 | 86 | 1057.8 |
| 20260903223743 | 17 | 292 | 11.3 | 0.0 | 0.00 | 0.05 | 0.00 | 86 | 1057.8 |
| 20260903223621 | 17 | 247 | 6.4 | 0.0 | 0.00 | 0.05 | 0.00 | 86 | 1057.9 |
| 20260903223502 | 17 | 270 | 6.4 | 0.0 | 0.00 | 0.05 | 0.00 | 86 | 1057.9 |
| 20260903223358 | 17 | 270 | 0.0 | 0.0 | 0.00 | 0.05 | 0.00 | 86 | 1057.9 |
| 20260903223250 | 17 | 270 | 0.0 | 0.0 | 0.00 | 0.05 | 0.00 | 86 | 1058.0 |
| 20260903223130 | 17 | 225 | 6.4 | 0.0 | 0.00 | 0.05 | 0.00 | 86 | 1057.9 |
| 20260903223016 | 17 | 225 | 8.0 | 0.0 | 0.00 | 0.05 | 0.00 | 86 | 1058.0 |
| 20260903222857 | 17 | 270 | 8.0 | 0.0 | 0.00 | 0.05 | 0.00 | 86 | 1057.9 |
| 20260903222750 | 17 | 270 | 8.0 | 0.0 | 0.00 | 0.05 | 0.00 | 86 | 1058.0 |
| 20260903222637 | 17 | 270 | 3.2 | 0.0 | 0.00 | 0.05 | 0.00 | 86 | 1058.0 |
| 20260903222531 | 17 | 202 | 3.2 | 0.0 | 0.00 | 0.05 | 0.00 | 86 | 1058.1 |
| 20260903222402 | 17 | 270 | 8.0 | 0.0 | 0.00 | 0.05 | 0.00 | 86 | 1058.0 |
| 20260903222249 | 17 | 247 | 6.4 | 0.0 | 0.00 | 0.05 | 0.00 | 86 | 1058.0 |
| 20260903222143 | 17 | 180 | 3.2 | 0.0 | 0.00 | 0.05 | 0.00 | 86 | 1058.0 |
| 20260903222013 | 17 | 225 | 0.0 | 0.0 | 0.00 | 0.05 | 0.00 | 86 | 1058.0 |
| 20260903221859 | 18 | 225 | 0.0 | 0.0 | 0.00 | 0.05 | 0.00 | 86 | 1058.1 |
| 20260903221753 | 18 | 225 | 0.0 | 0.0 | 0.00 | 0.05 | 0.00 | 86 | 1058.1 |
| 20260903221647 | 18 | 225 | 6.4 | 0.0 | 0.00 | 0.05 | 0.00 | 86 | 1058.1 |
| 20260903221539 | 18 | 270 | 0.0 | 0.0 | 0.00 | 0.05 | 0.00 | 86 | 1058.0 |
| 20260903221412 | 18 | 247 | 0.0 | 0.0 | 0.00 | 0.05 | 0.00 | 86 | 1058.0 |
| 20260903221307 | 18 | 247 | 8.0 | 0.0 | 0.00 | 0.05 | 0.00 | 86 | 1058.1 |
| 20260903221158 | 18 | 270 | 4.8 | 0.0 | 0.00 | 0.05 | 0.00 | 86 | 1058.1 |
| 20260903221044 | 18 | 270 | 9.7 | 0.0 | 0.00 | 0.05 | 0.00 | 86 | 1058.1 |
| 20260903220929 | 18 | 247 | 6.4 | 0.0 | 0.00 | 0.05 | 0.00 | 86 | 1058.0 |
| 20260903220817 | 18 | 247 | 4.8 | 0.0 | 0.00 | 0.05 | 0.00 | 86 | 1058.1 |
| 20260903220709 | 18 | 292 | 3.2 | 0.0 | 0.00 | 0.05 | 0.00 | 86 | 1058.2 |
| 20260903220547 | 18 | 247 | 9.7 | 0.0 | 0.00 | 0.05 | 0.00 | 86 | 1058.2 |
| 20260903220441 | 18 | 270 | 9.7 | 0.0 | 0.00 | 0.05 | 0.00 | 86 | 1058.2 |
| 20260903220335 | 18 | 247 | 12.9 | 0.0 | 0.00 | 0.05 | 0.00 | 86 | 1058.2 |
| 20260903220229 | 18 | 270 | 9.7 | 0.0 | 0.00 | 0.05 | 0.00 | 86 | 1058.2 |
| 20260903220123 | 18 | 270 | 0.0 | 0.0 | 0.00 | 0.05 | 0.00 | 86 | 1058.2 |
| 20260903220017 | 18 | 202 | 0.0 | 0.0 | 0.00 | 0.05 | 0.00 | 86 | 1058.3 |
| 20260903215911 | 18 | 225 | 3.2 | 0.0 | 0.00 | 0.05 | 0.00 | 86 | 1058.3 |
| 20260903215805 | 18 | 292 | 9.7 | 0.0 | 0.00 | 0.05 | 0.00 | 86 | 1058.3 |
| 20260903215700 | 18 | 270 | 8.0 | 0.0 | 0.00 | 0.05 | 0.00 | 86 | 1058.3 |
| 20260903215553 | 18 | 225 | 6.4 | 0.0 | 0.00 | 0.05 | 0.00 | 86 | 1058.3 |
| 20260903215447 | 18 | 225 | 6.4 | 0.0 | 0.00 | 0.05 | 0.00 | 86 | 1058.2 |
| 20260903215332 | 18 | 270 | 9.7 | 0.0 | 0.00 | 0.05 | 0.00 | 86 | 1058.2 |
| 20260903215213 | 18 | 270 | 0.0 | 0.0 | 0.00 | 0.05 | 0.00 | 86 | 1058.3 |
| 20260903215104 | 18 | 270 | 0.0 | 0.0 | 0.00 | 0.05 | 0.00 | 86 | 1058.2 |
| 20260903214949 | 18 | 270 | 0.0 | 0.0 | 0.00 | 0.05 | 0.00 | 86 | 1058.3 |
| 20260903214818 | 18 | 270 | 6.4 | 0.0 | 0.00 | 0.05 | 0.00 | 86 | 1058.2 |
| 20260903214705 | 18 | 270 | 0.0 | 0.0 | 0.00 | 0.05 | 0.00 | 86 | 1058.2 |
| 20260903214600 | 18 | 247 | 0.0 | 0.0 | 0.00 | 0.05 | 0.00 | 86 | 1058.2 |
| 20260903214453 | 18 | 247 | 14.5 | 0.0 | 0.00 | 0.05 | 0.00 | 86 | 1058.3 |
| 20260903214347 | 18 | 202 | 4.8 | 0.0 | 0.00 | 0.05 | 0.00 | 86 | 1058.3 |
| 20260903214240 | 18 | 225 | 0.0 | 0.0 | 0.00 | 0.05 | 0.00 | 86 | 1058.2 |
| 20260903214120 | 18 | 247 | 4.8 | 0.0 | 0.00 | 0.05 | 0.00 | 86 | 1058.3 |
| 20260903214004 | 18 | 247 | 0.0 | 0.0 | 0.00 | 0.05 | 0.00 | 86 | 1058.4 |
| 20260903213850 | 18 | 270 | 0.0 | 0.0 | 0.00 | 0.05 | 0.00 | 86 | 1058.4 |
| 20260903213728 | 18 | 247 | 0.0 | 0.0 | 0.00 | 0.05 | 0.00 | 86 | 1058.3 |
| 20260903213612 | 18 | 270 | 8.0 | 0.0 | 0.00 | 0.05 | 0.00 | 86 | 1058.3 |
| 20260903213459 | 18 | 270 | 14.5 | 0.0 | 0.00 | 0.05 | 0.00 | 86 | 1058.3 |
| 20260903213353 | 18 | 292 | 11.3 | 0.0 | 0.00 | 0.05 | 0.00 | 86 | 1058.3 |
| 20260903213246 | 18 | 270 | 4.8 | 0.0 | 0.00 | 0.05 | 0.00 | 86 | 1058.4 |
| 20260903213124 | 18 | 270 | 8.0 | 0.0 | 0.00 | 0.05 | 0.00 | 86 | 1058.3 |
| 20260903213010 | 18 | 315 | 8.0 | 0.0 | 0.00 | 0.05 | 0.00 | 86 | 1058.4 |
| 20260903212856 | 18 | 135 | 3.2 | 0.0 | 0.00 | 0.05 | 0.00 | 86 | 1058.4 |
| 20260903212751 | 18 | 270 | 9.7 | 0.0 | 0.00 | 0.05 | 0.00 | 86 | 1058.4 |
| 20260903212645 | 18 | 225 | 8.0 | 0.0 | 0.00 | 0.05 | 0.00 | 86 | 1058.4 |
| 20260903212539 | 18 | 292 | 6.4 | 0.0 | 0.00 | 0.05 | 0.00 | 86 | 1058.4 |
| 20260903212410 | 18 | 202 | 9.7 | 0.0 | 0.00 | 0.05 | 0.00 | 87 | 1058.4 |
| 20260903212249 | 18 | 202 | 4.8 | 0.0 | 0.00 | 0.05 | 0.00 | 87 | 1058.4 |
| 20260903212129 | 18 | 247 | 6.4 | 0.0 | 0.00 | 0.05 | 0.00 | 87 | 1058.4 |
| 20260903212024 | 18 | 247 | 3.2 | 0.0 | 0.00 | 0.05 | 0.00 | 87 | 1058.4 |
| 20260903211920 | 18 | 270 | 9.7 | 0.0 | 0.00 | 0.05 | 0.00 | 87 | 1058.4 |
| 20260903211815 | 18 | 270 | 6.4 | 0.0 | 0.00 | 0.05 | 0.00 | 87 | 1058.4 |
| 20260903211708 | 18 | 247 | 0.0 | 0.0 | 0.00 | 0.05 | 0.00 | 87 | 1058.4 |
| 20260903211555 | 18 | 292 | 9.7 | 0.0 | 0.00 | 0.05 | 0.00 | 87 | 1058.4 |
| 20260903211442 | 18 | 270 | 8.0 | 0.0 | 0.00 | 0.05 | 0.00 | 87 | 1058.4 |
| 20260903211338 | 18 | 270 | 6.4 | 0.0 | 0.00 | 0.05 | 0.00 | 87 | 1058.4 |
| 20260903211234 | 18 | 270 | 8.0 | 0.0 | 0.00 | 0.05 | 0.00 | 87 | 1058.4 |
| 20260903211121 | 18 | 225 | 8.0 | 0.0 | 0.00 | 0.05 | 0.00 | 87 | 1058.3 |
| 20260903211006 | 18 | 270 | 0.0 | 0.0 | 0.00 | 0.05 | 0.00 | 87 | 1058.3 |
| 20260903210853 | 18 | 292 | 0.0 | 0.0 | 0.00 | 0.05 | 0.00 | 87 | 1058.4 |
| 20260903210750 | 18 | 270 | 3.2 | 0.0 | 0.00 | 0.05 | 0.00 | 87 | 1058.4 |
| 20260903210642 | 18 | 270 | 11.3 | 0.0 | 0.00 | 0.05 | 0.00 | 87 | 1058.4 |
| 20260903210529 | 18 | 292 | 9.7 | 0.0 | 0.00 | 0.05 | 0.00 | 87 | 1058.4 |
| 20260903210408 | 18 | 247 | 0.0 | 0.0 | 0.00 | 0.05 | 0.00 | 87 | 1058.5 |
| 20260903210255 | 18 | 225 | 4.8 | 0.0 | 0.00 | 0.05 | 0.00 | 87 | 1058.5 |
| 20260903210150 | 18 | 202 | 6.4 | 0.0 | 0.00 | 0.05 | 0.00 | 87 | 1058.5 |
| 20260903210036 | 18 | 247 | 8.0 | 0.0 | 0.00 | 0.05 | 0.00 | 87 | 1058.6 |
| 20260903205916 | 18 | 247 | 8.0 | 0.0 | 0.00 | 0.05 | 0.00 | 87 | 1058.7 |
| 20260903205803 | 18 | 247 | 8.0 | 0.0 | 0.00 | 0.05 | 0.00 | 87 | 1058.6 |
| 20260903205649 | 18 | 247 | 9.7 | 0.0 | 0.00 | 0.05 | 0.00 | 87 | 1058.7 |
| 20260903205531 | 18 | 270 | 8.0 | 0.0 | 0.00 | 0.05 | 0.00 | 87 | 1058.6 |
| 20260903205426 | 18 | 270 | 9.7 | 0.0 | 0.00 | 0.05 | 0.00 | 87 | 1058.7 |
| 20260903205319 | 18 | 270 | 8.0 | 0.0 | 0.00 | 0.05 | 0.00 | 87 | 1058.6 |
| 20260903205212 | 18 | 292 | 9.7 | 0.0 | 0.00 | 0.05 | 0.00 | 86 | 1058.7 |
| 20260903205053 | 18 | 247 | 11.3 | 0.0 | 0.00 | 0.05 | 0.00 | 86 | 1058.7 |
| 20260903204939 | 18 | 247 | 9.7 | 0.0 | 0.00 | 0.05 | 0.00 | 86 | 1058.7 |
| 20260903204825 | 18 | 270 | 6.4 | 0.0 | 0.00 | 0.05 | 0.00 | 86 | 1058.7 |
| 20260903204711 | 18 | 270 | 6.4 | 0.0 | 0.00 | 0.05 | 0.00 | 86 | 1058.6 |
| 20260903204604 | 18 | 247 | 0.0 | 0.0 | 0.00 | 0.05 | 0.00 | 86 | 1058.6 |
| 20260903204450 | 18 | 225 | 8.0 | 0.0 | 0.00 | 0.05 | 0.00 | 86 | 1058.6 |
| 20260903204337 | 18 | 292 | 8.0 | 0.0 | 0.00 | 0.05 | 0.00 | 86 | 1058.7 |
| 20260903204225 | 18 | 292 | 9.7 | 0.0 | 0.00 | 0.05 | 0.00 | 86 | 1058.7 |
| 20260903204116 | 18 | 270 | 4.8 | 0.0 | 0.00 | 0.05 | 0.00 | 86 | 1058.7 |
| 20260903204002 | 18 | 247 | 6.4 | 0.0 | 0.00 | 0.05 | 0.00 | 86 | 1058.6 |
| 20260903203847 | 18 | 247 | 9.7 | 0.0 | 0.00 | 0.05 | 0.00 | 86 | 1058.7 |
| 20260903203725 | 18 | 247 | 19.3 | 0.0 | 0.00 | 0.05 | 0.00 | 86 | 1058.7 |
| 20260903203611 | 18 | 270 | 12.9 | 0.0 | 0.00 | 0.05 | 0.00 | 86 | 1058.6 |
| 20260903203505 | 18 | 270 | 6.4 | 0.0 | 0.00 | 0.05 | 0.00 | 86 | 1058.7 |
| 20260903203350 | 18 | 247 | 4.8 | 0.0 | 0.00 | 0.05 | 0.00 | 86 | 1058.6 |
| 20260903203238 | 18 | 270 | 8.0 | 0.0 | 0.00 | 0.05 | 0.00 | 86 | 1058.7 |
| 20260903203129 | 18 | 270 | 9.7 | 0.0 | 0.00 | 0.05 | 0.00 | 86 | 1058.7 |
| 20260903203008 | 18 | 247 | 6.4 | 0.0 | 0.00 | 0.05 | 0.00 | 86 | 1058.7 |
| 20260903202902 | 18 | 270 | 4.8 | 0.0 | 0.00 | 0.05 | 0.00 | 86 | 1058.7 |
| 20260903202756 | 18 | 247 | 11.3 | 0.0 | 0.00 | 0.05 | 0.00 | 86 | 1058.7 |
| 20260903202641 | 18 | 270 | 0.0 | 0.0 | 0.00 | 0.05 | 0.00 | 85 | 1058.7 |
| 20260903202512 | 18 | 270 | 6.4 | 0.0 | 0.00 | 0.05 | 0.00 | 85 | 1058.7 |
| 20260903202352 | 18 | 270 | 8.0 | 0.0 | 0.00 | 0.05 | 0.00 | 85 | 1058.8 |
| 20260903202247 | 18 | 292 | 6.4 | 0.0 | 0.00 | 0.05 | 0.00 | 85 | 1058.7 |
| 20260903202141 | 18 | 270 | 12.9 | 0.0 | 0.00 | 0.05 | 0.00 | 85 | 1058.7 |
| 20260903202035 | 18 | 270 | 6.4 | 0.0 | 0.00 | 0.05 | 0.00 | 85 | 1058.7 |
| 20260903201928 | 18 | 270 | 8.0 | 0.0 | 0.00 | 0.05 | 0.00 | 85 | 1058.7 |
| 20260903201818 | 18 | 270 | 8.0 | 0.0 | 0.00 | 0.05 | 0.00 | 85 | 1058.7 |
| 20260903201710 | 18 | 270 | 11.3 | 0.0 | 0.00 | 0.05 | 0.00 | 85 | 1058.7 |
| 20260903201557 | 18 | 270 | 9.7 | 0.0 | 0.00 | 0.05 | 0.00 | 86 | 1058.7 |
| 20260903201451 | 18 | 225 | 17.7 | 0.0 | 0.00 | 0.05 | 0.00 | 86 | 1058.7 |
| 20260903201330 | 18 | 247 | 6.4 | 0.0 | 0.00 | 0.05 | 0.00 | 86 | 1058.7 |
| 20260903201214 | 18 | 270 | 9.7 | 0.0 | 0.00 | 0.05 | 0.00 | 86 | 1058.8 |
| 20260903201100 | 18 | 270 | 11.3 | 0.0 | 0.00 | 0.05 | 0.00 | 86 | 1058.7 |
| 20260903200956 | 18 | 247 | 14.5 | 0.0 | 0.00 | 0.05 | 0.00 | 86 | 1058.8 |
| 20260903200851 | 18 | 247 | 8.0 | 0.0 | 0.00 | 0.05 | 0.00 | 86 | 1058.8 |
| 20260903200745 | 18 | 270 | 9.7 | 0.0 | 0.00 | 0.05 | 0.00 | 86 | 1058.8 |
| 20260903200639 | 18 | 270 | 9.7 | 0.0 | 0.00 | 0.05 | 0.00 | 86 | 1058.8 |
| 20260903200520 | 18 | 292 | 9.7 | 0.0 | 0.00 | 0.05 | 0.00 | 86 | 1058.8 |
| 20260903200414 | 18 | 292 | 9.7 | 0.0 | 0.00 | 0.05 | 0.00 | 86 | 1058.8 |
| 20260903200307 | 18 | 270 | 12.9 | 0.0 | 0.00 | 0.05 | 0.00 | 86 | 1058.8 |
| 20260903200157 | 18 | 270 | 3.2 | 0.0 | 0.00 | 0.05 | 0.00 | 86 | 1058.8 |
| 20260903200048 | 18 | 247 | 9.7 | 0.0 | 0.00 | 0.05 | 0.00 | 86 | 1058.8 |
| 20260903195934 | 18 | 292 | 0.0 | 0.0 | 0.00 | 0.05 | 0.00 | 86 | 1058.8 |
| 20260903195827 | 18 | 225 | 14.5 | 0.0 | 0.00 | 0.05 | 0.00 | 86 | 1058.8 |
| 20260903195709 | 18 | 270 | 6.4 | 0.0 | 0.00 | 0.05 | 0.00 | 86 | 1058.7 |
| 20260903195603 | 18 | 270 | 8.0 | 0.0 | 0.00 | 0.05 | 0.00 | 86 | 1058.7 |
| 20260903195448 | 18 | 315 | 4.8 | 0.0 | 0.00 | 0.05 | 0.00 | 87 | 1058.7 |
| 20260903195336 | 18 | 247 | 14.5 | 0.0 | 0.00 | 0.05 | 0.00 | 87 | 1058.7 |
| 20260903195217 | 18 | 337 | 1.6 | 0.0 | 0.00 | 0.05 | 0.00 | 87 | 1058.6 |
| 20260903195109 | 18 | 270 | 12.9 | 0.0 | 0.00 | 0.05 | 0.00 | 87 | 1058.7 |
| 20260903194947 | 18 | 315 | 8.0 | 0.0 | 0.00 | 0.05 | 0.00 | 87 | 1058.7 |
| 20260903194830 | 18 | 292 | 9.7 | 0.0 | 0.00 | 0.05 | 0.00 | 87 | 1058.7 |
| 20260903194722 | 18 | 292 | 8.0 | 0.0 | 0.00 | 0.05 | 0.00 | 87 | 1058.7 |
| 20260903194609 | 18 | 0 | 11.3 | 0.0 | 0.00 | 0.05 | 0.00 | 86 | 1058.7 |
| 20260903194456 | 18 | 270 | 11.3 | 0.0 | 0.00 | 0.05 | 0.00 | 86 | 1058.7 |
| 20260903194351 | 18 | 292 | 11.3 | 0.0 | 0.00 | 0.05 | 0.00 | 86 | 1058.8 |
| 20260903194245 | 18 | 270 | 0.0 | 0.0 | 0.00 | 0.05 | 0.00 | 86 | 1058.7 |
| 20260903194135 | 18 | 270 | 9.7 | 0.0 | 0.00 | 0.05 | 0.00 | 86 | 1058.8 |
| 20260903194027 | 18 | 270 | 0.0 | 0.0 | 0.00 | 0.05 | 0.00 | 86 | 1058.8 |
| 20260903193907 | 18 | 315 | 20.9 | 0.0 | 0.00 | 0.05 | 0.00 | 86 | 1058.8 |
| 20260903193803 | 18 | 292 | 6.4 | 0.0 | 0.00 | 0.05 | 0.00 | 86 | 1058.8 |
| 20260903193655 | 18 | 315 | 19.3 | 0.0 | 0.00 | 0.05 | 0.00 | 86 | 1058.8 |
| 20260903193542 | 18 | 292 | 9.7 | 0.0 | 0.00 | 0.05 | 0.00 | 86 | 1058.9 |
| 20260903193436 | 18 | 292 | 9.7 | 0.0 | 0.00 | 0.05 | 0.00 | 86 | 1058.9 |
| 20260903193329 | 18 | 292 | 9.7 | 0.0 | 0.00 | 0.05 | 0.00 | 86 | 1058.8 |
| 20260903193215 | 18 | 247 | 4.8 | 0.0 | 0.00 | 0.05 | 0.00 | 86 | 1058.8 |
| 20260903193102 | 18 | 225 | 6.4 | 0.0 | 0.00 | 0.05 | 0.00 | 86 | 1058.8 |
| 20260903192958 | 18 | 270 | 4.8 | 0.0 | 0.00 | 0.05 | 0.00 | 86 | 1058.9 |
| 20260903192850 | 18 | 292 | 6.4 | 0.0 | 0.00 | 0.05 | 0.00 | 86 | 1058.8 |
| 20260903192737 | 18 | 247 | 8.0 | 0.0 | 0.00 | 0.05 | 0.00 | 86 | 1058.7 |
| 20260903192624 | 18 | 292 | 6.4 | 0.0 | 0.00 | 0.05 | 0.00 | 86 | 1058.6 |
| 20260903192518 | 18 | 247 | 9.7 | 0.0 | 0.00 | 0.05 | 0.00 | 86 | 1058.7 |
| 20260903192413 | 18 | 270 | 9.7 | 0.0 | 0.00 | 0.05 | 0.00 | 86 | 1058.7 |
| 20260903192307 | 18 | 247 | 11.3 | 0.0 | 0.00 | 0.05 | 0.00 | 86 | 1058.7 |
| 20260903192200 | 18 | 270 | 8.0 | 0.0 | 0.00 | 0.05 | 0.00 | 86 | 1058.6 |
| 20260903192049 | 18 | 292 | 16.1 | 0.0 | 0.00 | 0.05 | 0.00 | 86 | 1058.6 |
| 20260903191935 | 18 | 315 | 12.9 | 0.0 | 0.00 | 0.05 | 0.00 | 86 | 1058.8 |
| 20260903191830 | 18 | 292 | 11.3 | 0.0 | 0.00 | 0.05 | 0.00 | 86 | 1058.6 |
| 20260903191724 | 18 | 270 | 3.2 | 0.0 | 0.00 | 0.05 | 0.00 | 86 | 1058.6 |
| 20260903191603 | 18 | 270 | 9.7 | 0.0 | 0.00 | 0.05 | 0.00 | 86 | 1058.7 |
| 20260903191433 | 18 | 247 | 9.7 | 0.0 | 0.00 | 0.05 | 0.00 | 86 | 1058.8 |
| 20260903191319 | 18 | 292 | 8.0 | 0.0 | 0.00 | 0.05 | 0.00 | 86 | 1058.8 |
| 20260903191150 | 18 | 270 | 0.0 | 0.0 | 0.00 | 0.05 | 0.00 | 86 | 1058.8 |
| 20260903191038 | 18 | 292 | 6.4 | 0.0 | 0.00 | 0.05 | 0.00 | 86 | 1058.7 |
| 20260903190908 | 18 | 270 | 4.8 | 0.0 | 0.00 | 0.05 | 0.00 | 86 | 1058.8 |
| 20260903190754 | 18 | 270 | 8.0 | 0.0 | 0.00 | 0.05 | 0.00 | 86 | 1058.7 |